[[{"header":{"parameterUnit":"m.s-1","parameterCategory":1,"la1":30.2991,"la2":30.254,"lo1":-89.0895,"lo2":-89.0444,"dy":0.0017,"dx":0.0017,"nx":28,"ny":28,"refTime":"2026-02-04T09:00:00:Z","depth":0,"parameterNumber":2,"parameterNumberName":"U-component_of_WINDS"},"data":[0,0,0,0,0,0,0,0,0,0,0,0,0,0,0,0,0,0,0,0,0,0,0,0,0,0,0,0,0,0,0,0,0,0,0,0,0,0,0,0,0,0,0,0,0,0,0,0,0,0,0,0,0,0,0,0,0,0,1.7453,1.7454,0,1.7458,1.7458,1.7458,1.7446,1.7445,1.7445,1.7445,1.7449,1.7449,1.745,0,0,0,0,0,0,0,0,0,0,0,0,0,1.7435,1.7435,1.7453,1.7454,1.7454,1.7458,1.7458,1.7458,1.7446,1.7445,1.7445,1.7444,1.7449,1.7449,1.745,0,0,0,0,0,0,0,0,0,0,0,0,0,1.7442,1.7435,1.7453,1.7448,1.7448,1.7458,1.7458,1.7458,1.7446,1.7445,1.7445,1.7444,1.7448,1.7449,1.745,1.7465,0,0,1.7452,1.7452,0,0,0,0,0,0,0,0,1.7441,1.7442,1.7449,1.7448,1.7448,1.7451,1.7453,1.7461,1.7446,1.7447,1.7445,1.7444,1.745,1.745,1.7452,1.7466,1.7466,1.7452,1.7452,1.7453,1.7453,0,0,0,0,0,0,0,1.7441,1.7442,1.7455,1.7449,1.7448,1.7446,1.7446,1.7454,1.7451,1.7446,1.7446,1.7446,1.7449,1.7452,1.7452,1.7466,1.7452,1.7453,1.7453,1.7453,1.7493,1.7494,0,0,0,0,0,0,1.7441,1.7442,1.7455,1.7455,1.7443,1.7446,1.7447,1.745,1.7451,1.7451,1.7447,1.7446,1.7451,1.7452,1.7453,1.7471,1.7453,1.7453,1.7454,1.7493,1.7493,1.7494,0,0,0,0,0,0,1.7441,1.7442,1.7455,1.7448,1.745,1.7447,1.7452,1.7451,1.7453,1.7451,1.7451,1.745,1.745,1.7452,1.7463,1.7471,1.7454,1.7454,1.7492,1.7493,1.7494,1.7509,0,0,0,0,0,0,1.744,1.7442,1.7448,1.7449,1.745,1.7465,1.7452,1.7451,1.7454,1.7453,1.7454,1.7454,1.745,1.7462,1.7463,1.7472,1.7455,1.7491,1.7492,1.7494,1.7508,1.751,1.7513,0,0,0,0,0,1.7439,1.7452,1.7448,1.745,1.7457,1.7465,1.7466,1.7462,1.7455,1.7461,1.746,1.7454,1.747,1.7463,1.7465,1.7474,1.749,1.7492,1.7493,1.7506,1.751,1.7512,0,0,0,0,0,0,1.7451,1.7451,1.7448,1.746,1.7463,1.7463,1.747,1.7465,1.747,1.7468,1.7463,1.7463,1.7476,1.7476,1.7467,1.7489,1.7479,1.7481,1.7489,1.7492,1.7494,1.7493,1.7455,0,0,0,0,0,1.7456,1.7462,1.7462,1.7473,1.7475,1.7472,1.7476,1.7473,1.7475,1.7476,1.7476,1.7478,1.7484,1.7488,1.7493,1.7508,1.7508,1.7515,1.7518,1.752,1.7521,1.753,1.7533,1.7499,1.7499,1.7499,0,0,1.7464,1.7465,1.7469,1.7476,1.7477,1.7484,1.7473,1.7481,1.7486,1.7477,1.7487,1.7488,1.749,1.7503,1.7509,1.7504,1.7531,1.7522,1.7523,1.7524,1.7531,1.7535,1.7538,1.75,1.75,1.75,0,0,1.7483,1.7484,1.7494,1.7496,1.7499,1.7498,1.75,1.7502,1.7502,1.7512,1.7506,1.7512,1.7522,1.7525,1.7527,1.7549,1.7543,1.7551,1.7564,1.7572,1.7575,1.7577,1.7585,1.7588,1.7553,1.7553,1.7553,0,1.7493,1.7503,1.75,1.7508,1.7511,1.7504,1.7514,1.7517,1.7521,1.7524,1.7518,1.7532,1.7533,1.7547,1.7552,1.7554,1.7557,1.755,1.7575,1.7577,1.7579,1.7587,1.759,1.7554,1.7554,1.7554,1.7553,0,1.7516,1.7523,1.7531,1.7536,1.754,1.7549,1.7547,1.7552,1.7549,1.7549,1.756,1.7562,1.7568,1.7571,1.7568,1.7585,1.7582,1.7576,1.7565,1.7583,1.759,1.7593,1.7555,1.7555,1.7554,1.7554,0,0,1.754,1.7545,1.7547,1.755,1.7554,1.7559,1.7569,1.7575,1.758,1.7584,1.7591,1.7601,1.7596,1.7599,1.7596,1.7604,1.7621,1.7597,1.7597,1.7601,1.7641,1.7645,1.7648,1.7618,1.7619,1.7619,1.764,0,1.7559,1.7575,1.7573,1.7589,1.7596,1.759,1.7599,1.7602,1.7602,1.7609,1.7609,1.7616,1.7608,1.761,1.7617,1.7618,1.7629,1.7616,1.7625,1.7626,1.7624,1.7652,1.7656,1.7676,1.7643,1.7643,1.7644,0,1.7582,1.7588,1.7604,1.7608,1.7611,1.7618,1.7624,1.7631,1.7635,1.7635,1.7639,1.7635,1.7645,1.7636,1.765,1.7641,1.7645,1.7646,1.7646,1.7646,1.7635,1.7652,1.7682,1.7685,1.7648,1.7648,1.7647,0,1.7599,1.761,1.7622,1.7624,1.7629,1.7634,1.7636,1.764,1.7644,1.765,1.7653,1.766,1.7663,1.7668,1.7667,1.766,1.7681,1.7671,1.7682,1.7682,1.7685,1.7685,1.7716,1.7689,1.7689,1.7689,1.7689,0,1.7619,1.763,1.7629,1.7636,1.7648,1.7646,1.7658,1.7659,1.7663,1.767,1.7666,1.7673,1.7671,1.7679,1.7678,1.769,1.7691,1.7691,1.7691,1.7691,1.7691,1.7693,1.7692,1.769,1.7689,1.7689,1.7689,0,1.7639,1.7639,1.7651,1.7655,1.7657,1.7665,1.7668,1.7675,1.7676,1.7685,1.7688,1.7689,1.7697,1.7697,1.7706,1.7705,1.772,1.7718,1.7719,1.7718,1.7728,1.7727,1.7761,1.7765,1.7736,1.7736,1.7736,0,1.7652,1.766,1.7665,1.767,1.7672,1.768,1.7685,1.7684,1.7689,1.7695,1.7701,1.771,1.7716,1.773,1.7732,1.7739,1.7737,1.7748,1.7738,1.7739,1.7737,1.7736,1.7737,1.775,1.775,1.7751,1.7751,0,1.7674,1.7674,1.7681,1.7689,1.7695,1.77,1.7706,1.771,1.771,1.7716,1.7725,1.773,1.774,1.7749,1.7756,1.7758,1.7755,1.7754,1.7757,1.7757,1.7757,1.7757,1.7724,1.7753,1.7753,1.7753,1.7753,1.7753,1.7691,1.7698,1.7703,1.7711,1.7715,1.772,1.7727,1.7729,1.7737,1.7745,1.7745,1.7755,1.776,1.777,1.7773,1.7781,1.7777,1.7781,1.7782,1.7782,1.7784,1.7757,1.7782,1.7782,1.7782,1.7782,1.7782,0,1.7713,1.7716,1.7724,1.7732,1.7739,1.7735,1.7742,1.7747,1.7756,1.7762,1.7769,1.7779,1.7788,1.7791,1.7799,1.7805,1.7804,1.7807,1.7806,1.7807,1.7787,1.7783,1.7808,1.7808,1.7808,1.7808,1.7808,1.7808,1.7725,1.7737,1.7738,1.7752,1.7756,1.7766,1.777,1.7775,1.7779,1.7792,1.7799,1.7801,1.7806,1.7815,1.7822,1.7823,1.7826,1.7831,1.783,1.7811,1.7808,1.7806,1.7803,1.7831,1.7831,1.785,1.785,1.785]},{"header":{"parameterUnit":"m.s-1","parameterCategory":1,"la1":30.2991,"la2":30.254,"lo1":-89.0895,"lo2":-89.0444,"dy":0.0017,"dx":0.0017,"nx":28,"ny":28,"refTime":"2026-02-04T09:00:00:Z","depth":0,"parameterNumber":3,"parameterNumberName":"V-component_of_WINDS"},"data":[0,0,0,0,0,0,0,0,0,0,0,0,0,0,0,0,0,0,0,0,0,0,0,0,0,0,0,0,0,0,0,0,0,0,0,0,0,0,0,0,0,0,0,0,0,0,0,0,0,0,0,0,0,0,0,0,0,0,-7.7814,-7.7816,0,-7.8002,-7.8004,-7.8006,-7.794,-7.7936,-7.7932,-7.7928,-7.8114,-7.8122,-7.8131,0,0,0,0,0,0,0,0,0,0,0,0,0,-7.7394,-7.7403,-7.7814,-7.7816,-7.7819,-7.8001,-7.8004,-7.8006,-7.7941,-7.7936,-7.7931,-7.7926,-7.8111,-7.8121,-7.8132,0,0,0,0,0,0,0,0,0,0,0,0,0,-7.7579,-7.7405,-7.7814,-7.7808,-7.781,-7.8001,-7.8004,-7.8007,-7.7942,-7.7936,-7.7929,-7.7924,-7.8108,-7.812,-7.8133,-7.834,0,0,-7.8174,-7.818,0,0,0,0,0,0,0,0,-7.7568,-7.7594,-7.7807,-7.7809,-7.7811,-7.7941,-7.7924,-7.8118,-7.7943,-7.7891,-7.7928,-7.7921,-7.8061,-7.8078,-7.8126,-7.8348,-7.8356,-7.8175,-7.8183,-7.8189,-7.8192,0,0,0,0,0,0,0,-7.7556,-7.7586,-7.7888,-7.781,-7.7812,-7.7795,-7.7814,-7.7961,-7.8009,-7.7895,-7.7891,-7.7915,-7.8061,-7.8114,-7.813,-7.8359,-7.8175,-7.8186,-7.8195,-7.82,-7.8761,-7.8768,0,0,0,0,0,0,-7.7543,-7.7576,-7.7882,-7.7894,-7.7672,-7.7807,-7.7829,-7.7906,-7.8007,-7.8016,-7.792,-7.7911,-7.8094,-7.8115,-7.8137,-7.8386,-7.8189,-7.8201,-7.8209,-7.8754,-7.8763,-7.877,0,0,0,0,0,0,-7.7534,-7.7571,-7.7874,-7.7734,-7.7771,-7.7821,-7.7908,-7.7913,-7.7965,-7.8025,-7.8033,-7.7965,-7.809,-7.8118,-7.829,-7.8392,-7.8207,-7.8219,-7.8746,-7.8757,-7.8766,-7.8886,0,0,0,0,0,0,-7.7522,-7.7568,-7.7648,-7.7736,-7.7779,-7.8027,-7.7914,-7.7921,-7.7989,-7.7979,-7.807,-7.8079,-7.8087,-7.8271,-7.8304,-7.8407,-7.8229,-7.8737,-7.8751,-7.8763,-7.8874,-7.89,-7.8922,0,0,0,0,0,-7.7507,-7.7672,-7.7652,-7.7689,-7.788,-7.8033,-7.8057,-7.8065,-7.7997,-7.8078,-7.8116,-7.8076,-7.8375,-7.8289,-7.8325,-7.8434,-7.8731,-7.8747,-7.8762,-7.8863,-7.8894,-7.8921,0,0,0,0,0,0,-7.7592,-7.7684,-7.7662,-7.7861,-7.794,-7.8022,-7.8123,-7.8098,-7.8197,-7.8183,-7.8187,-7.8208,-7.8386,-7.8427,-7.8329,-7.8639,-7.8543,-7.8566,-7.8607,-7.8637,-7.8661,-7.8648,-7.824,0,0,0,0,0,-7.7634,-7.7753,-7.7825,-7.7994,-7.8035,-7.8073,-7.8139,-7.8139,-7.822,-7.8253,-7.8304,-7.8383,-7.8494,-7.8568,-7.8674,-7.8879,-7.8898,-7.8971,-7.8995,-7.9015,-7.9035,-7.9148,-7.9182,-7.8822,-7.8822,-7.8821,0,0,-7.7722,-7.7786,-7.786,-7.8012,-7.8074,-7.8195,-7.8101,-7.8233,-7.8323,-7.8272,-7.8439,-7.848,-7.8568,-7.8758,-7.8844,-7.8797,-7.9139,-7.9035,-7.905,-7.906,-7.9168,-7.9202,-7.9232,-7.8832,-7.883,-7.8829,0,0,-7.7944,-7.8005,-7.8153,-7.8217,-7.8312,-7.8336,-7.8372,-7.8458,-7.8484,-7.8652,-7.8617,-7.8723,-7.8915,-7.898,-7.9038,-7.9287,-7.9254,-7.9321,-7.9448,-7.9558,-7.9586,-7.9611,-7.9701,-7.9733,-7.9341,-7.9342,-7.9342,0,-7.804,-7.8224,-7.8231,-7.8368,-7.8436,-7.8398,-7.8547,-7.8608,-7.8732,-7.8779,-7.8725,-7.8968,-7.9024,-7.923,-7.9291,-7.9339,-7.9379,-7.9311,-7.9582,-7.9607,-7.9631,-7.9717,-7.975,-7.9349,-7.9348,-7.9348,-7.9347,0,-7.8339,-7.8467,-7.8574,-7.8698,-7.8778,-7.892,-7.8948,-7.9028,-7.9021,-7.905,-7.9222,-7.9289,-7.9409,-7.9457,-7.945,-7.9663,-7.9631,-7.958,-7.9483,-7.9673,-7.9753,-7.9786,-7.936,-7.9357,-7.9355,-7.9353,0,0,-7.8619,-7.8747,-7.8787,-7.8843,-7.8946,-7.9044,-7.9184,-7.9304,-7.9373,-7.9459,-7.9577,-7.9742,-7.9696,-7.9762,-7.9761,-7.9858,-8.0053,-7.9795,-7.9797,-7.9842,-8.0293,-8.0332,-8.037,-8.0031,-8.0038,-8.0043,-8.0286,0,-7.8851,-7.91,-7.9111,-7.9338,-7.9456,-7.9422,-7.9544,-7.962,-7.9652,-7.9756,-7.9789,-7.9907,-7.9836,-7.9876,-7.997,-8.0009,-8.0144,-7.9992,-8.014,-8.0146,-8.0121,-8.0412,-8.0454,-8.068,-8.0317,-8.0323,-8.0326,0,-7.9155,-7.9254,-7.9493,-7.9581,-7.9631,-7.9741,-7.9853,-7.9953,-8.0038,-8.0054,-8.0129,-8.0116,-8.0258,-8.0156,-8.0353,-8.0249,-8.0311,-8.0339,-8.0348,-8.0363,-8.0248,-8.0436,-8.0752,-8.0787,-8.0376,-8.0372,-8.0368,0,-7.9338,-7.9531,-7.9699,-7.9749,-7.9855,-7.9933,-7.998,-8.0059,-8.0131,-8.0228,-8.0274,-8.0385,-8.0446,-8.0532,-8.0549,-8.0473,-8.0746,-8.0645,-8.0763,-8.0763,-8.0823,-8.0819,-8.1155,-8.0861,-8.086,-8.086,-8.0859,0,-7.9596,-7.9744,-7.9783,-7.9887,-8.0052,-8.0063,-8.0225,-8.0266,-8.0337,-8.0448,-8.0424,-8.0527,-8.0543,-8.065,-8.0663,-8.0825,-8.0852,-8.0869,-8.0871,-8.0872,-8.087,-8.0913,-8.0898,-8.0869,-8.0867,-8.0865,-8.0863,0,-7.9828,-7.9861,-8.0043,-8.0129,-8.0154,-8.0272,-8.0345,-8.0444,-8.0474,-8.0614,-8.0647,-8.0693,-8.0818,-8.0843,-8.099,-8.0999,-8.1192,-8.1178,-8.1165,-8.1164,-8.1282,-8.1271,-8.1657,-8.1709,-8.138,-8.1383,-8.1385,0,-7.9992,-8.0105,-8.0205,-8.0279,-8.0331,-8.0449,-8.0523,-8.0538,-8.0616,-8.0722,-8.0809,-8.0932,-8.1031,-8.1233,-8.1278,-8.1391,-8.1379,-8.1507,-8.1396,-8.1394,-8.1383,-8.1377,-8.1389,-8.1528,-8.1532,-8.1535,-8.1537,0,-8.0279,-8.029,-8.0399,-8.0515,-8.0605,-8.0695,-8.0781,-8.0843,-8.0869,-8.0957,-8.1087,-8.1164,-8.1316,-8.1439,-8.1552,-8.1598,-8.1573,-8.1572,-8.1606,-8.1609,-8.1597,-8.1607,-8.1224,-8.1563,-8.1561,-8.1559,-8.1557,-8.1556,-8.0483,-8.0583,-8.067,-8.0792,-8.0859,-8.0941,-8.1039,-8.1082,-8.1191,-8.1318,-8.1319,-8.1461,-8.1543,-8.1693,-8.1747,-8.1857,-8.1817,-8.1865,-8.1878,-8.189,-8.1902,-8.1579,-8.1877,-8.1877,-8.1876,-8.1876,-8.1875,0,-8.0771,-8.0825,-8.0938,-8.1061,-8.1158,-8.1127,-8.1221,-8.1304,-8.1429,-8.151,-8.1609,-8.1758,-8.1877,-8.1933,-8.205,-8.2128,-8.2119,-8.2158,-8.2153,-8.2165,-8.193,-8.189,-8.2164,-8.2164,-8.2164,-8.2164,-8.2163,-8.2163,-8.0932,-8.11,-8.1122,-8.1323,-8.1376,-8.1517,-8.1574,-8.1649,-8.1713,-8.1882,-8.1982,-8.2018,-8.2089,-8.2212,-8.2319,-8.2332,-8.2377,-8.2423,-8.243,-8.221,-8.2181,-8.2153,-8.2116,-8.2432,-8.2432,-8.2656,-8.2658,-8.2659]}]]